Content
SEND FEEDBACK

Daily
Averages
Monthly
Summary
United States of America

ARNETT, OKLAHOMA


Home > North America > United States > Oklahoma
Elevation: 2455 feet     Latitude: 36 08N     Longitude: 099 46W

WEATHER
 
SELECT A DAY
Number of Records: 73,153;   Date Range: 1/1/95 - 7/29/14
 
SHARE

PRINT THIS DATA

[ ← Previous Day ]
WEATHER ALMANAC - JANUARY 31, 2013
[ Next Day → ]
[ °C ]   °F
Weather ElementAverageHighLow
Temperature32.1 °F52 °F (2:53 pm)19 °F (5:53 am)
Dewpoint18.5 °F25 °F (3:53 pm)12.9 °F (11:53 pm)
Humidity61.2 %85 % (5:53 am)29 % (11:53 am)
Barometer30.19 in30.42 in (8:53 pm)30.02 in (4:53 am)
Wind Speed9.2 mph19.6 mph (12:53 pm)
Wind Gust25.3 mph (4:53 pm)
Weather ElementAverage
Visibility10 mi
Wind DirectionSSE (146.8 °)

Weather ElementTotal
Precipitation---
Heating Degree Days29.5 (Base 65)
Averaged from 22 records on January 31, 2013
WEATHER CONDITIONS BREAKOUT
WIND DIRECTION BREAKOUT
WEATHER BY HOUR - JANUARY 31, 2013
[ °C ]   °F
Local TimeTemperatureDewpointHumidityBarometerVisibilityWind DirectionWind SpeedGust SpeedPrecipitationEventsConditions
1:53 AM24.1 °F17.1 °F75 %30.05 in10.0 miSSW (210°)6.9 mphClear
2:53 AM21.9 °F16.0 °F78 %30.05 in10.0 miSSW (200°)3.5 mphPartly Cloudy
3:53 AM23.0 °F17.1 °F78 %30.03 in10.0 miSSW (210°)4.6 mphClear
4:53 AM19.9 °F15.1 °F81 %30.02 in10.0 miCalmClear
5:53 AM19.0 °F15.1 °F85 %30.04 in10.0 miSW (230°)4.6 mphClear
6:53 AM21.9 °F16.0 °F78 %30.06 in10.0 miSW (230°)5.8 mphClear
7:53 AM24.1 °F18.0 °F77 %30.07 in10.0 miWSW (240°)4.6 mphClear
8:53 AM28.9 °F19.9 °F69 %30.09 in10.0 miWest (270°)8.1 mphClear
9:53 AM37.0 °F21.0 °F52 %30.12 in10.0 miWSW (250°)13.8 mphClear
10:53 AM46.9 °F21.0 °F36 %30.14 in10.0 miNW (310°)11.5 mphClear
11:53 AM50.0 °F19.0 °F29 %30.14 in10.0 miNorth (350°)12.7 mph20.7 mphClear
12:53 PM50.0 °F19.9 °F31 %30.15 in10.0 miNNE (20°)19.6 mphClear
2:53 PM52.0 °F21.9 °F31 %30.16 in10.0 miNE (40°)18.4 mphClear
3:53 PM48.9 °F25.0 °F39 %30.23 in10.0 miNE (40°)15.0 mph24.2 mphClear
4:53 PM45.0 °F25.0 °F46 %30.26 in10.0 miNE (40°)13.8 mph25.3 mphClear
5:53 PM39.9 °F21.0 °F47 %30.31 in10.0 miENE (60°)11.5 mphClear
6:53 PM34.0 °F19.9 °F56 %30.36 in10.0 miENE (70°)9.2 mphClear
7:53 PM30.0 °F19.0 °F64 %30.39 in10.0 miEast (80°)9.2 mph17.3 mphClear
8:53 PM25.0 °F17.1 °F72 %30.42 in10.0 miEast (100°)6.9 mphClear
9:53 PM23.0 °F15.8 °F74 %30.33 in10.0 miEast (80°)10.4 mphClear
10:53 PM21.9 °F15.1 °F75 %30.37 in10.0 miEast (90°)4.6 mphClear
11:53 PM19.9 °F12.9 °F74 %30.38 in10.0 miESE (110°)8.1 mphClear
Hourly data recorded from KGAG, located miles away from Arnett, Oklahoma







STORIES FROM OUR PARTNERS